| time (UTC) | temp C | wind direction | speed KPH | gust KPH | rain 1hr cm | rain 24hr cm | rain mn cm | humidity % | barometer mb |
| 20260509233055 | 11 | 122 | 1.6 | 8.0 | 0.46 | 1.55 | 0.81 | 91 | 1012.6 |
| 20260509231606 | 11 | 159 | 0.0 | 0.0 | 0.43 | 1.42 | 0.69 | 91 | 1012.5 |
| 20260509230053 | 11 | 160 | 0.0 | 0.0 | 0.46 | 1.30 | 0.56 | 91 | 1012.8 |
| 20260509224522 | 12 | 161 | 0.0 | 8.0 | 0.41 | 1.17 | 0.43 | 90 | 1012.9 |
| 20260509223021 | 12 | 226 | 0.0 | 0.0 | 0.38 | 1.09 | 0.36 | 90 | 1012.6 |
| 20260509220012 | 12 | 226 | 0.0 | 8.0 | 0.18 | 0.84 | 0.10 | 89 | 1012.3 |
| 20260509214509 | 12 | 241 | 0.0 | 1.6 | 0.13 | 0.76 | 0.03 | 89 | 1012.3 |
| 20260509213008 | 12 | 190 | 0.0 | 0.0 | 0.20 | 0.71 | 0.71 | 89 | 1012.0 |
| 20260509211514 | 12 | 191 | 0.0 | 0.0 | 0.30 | 0.69 | 0.69 | 88 | 1012.1 |
| 20260509210006 | 12 | 188 | 0.0 | 9.7 | 0.36 | 0.66 | 0.66 | 88 | 1012.2 |
| 20260509204504 | 12 | 197 | 1.6 | 11.3 | 0.30 | 0.61 | 0.61 | 87 | 1012.3 |
| 20260509203005 | 12 | 122 | 0.0 | 9.7 | 0.28 | 0.51 | 0.51 | 86 | 1012.1 |
| 20260509201558 | 13 | 186 | 0.0 | 17.7 | 0.20 | 0.38 | 0.38 | 86 | 1012.2 |
| 20260509200058 | 13 | 82 | 0.0 | 0.0 | 0.13 | 0.30 | 0.30 | 85 | 1011.7 |
| 20260509194530 | 13 | 82 | 0.0 | 1.6 | 0.13 | 0.30 | 0.30 | 82 | 1011.6 |
| 20260509193027 | 15 | 76 | 0.0 | 11.3 | 0.05 | 0.23 | 0.23 | 78 | 1011.7 |
| 20260509191527 | 15 | 134 | 0.0 | 4.8 | 0.00 | 0.18 | 0.18 | 73 | 1011.7 |
| 20260509190021 | 15 | 126 | 0.0 | 9.7 | 0.00 | 0.18 | 0.18 | 72 | 1011.9 |
| 20260509184521 | 15 | 191 | 1.6 | 14.5 | 0.00 | 0.18 | 0.18 | 74 | 1012.0 |
| 20260509183015 | 15 | 184 | 0.0 | 9.7 | 0.00 | 0.18 | 0.18 | 72 | 1012.1 |
| 20260509181514 | 15 | 128 | 0.0 | 1.6 | 0.00 | 0.18 | 0.18 | 74 | 1012.2 |
| 20260509180013 | 15 | 123 | 0.0 | 0.0 | 0.00 | 0.18 | 0.18 | 72 | 1012.2 |
| 20260509174511 | 15 | 182 | 0.0 | 6.4 | 0.00 | 0.18 | 0.18 | 73 | 1012.5 |
| 20260509173032 | 15 | 196 | 0.0 | 8.0 | 0.00 | 0.18 | 0.18 | 71 | 1012.8 |
| 20260509171521 | 15 | 190 | 0.0 | 8.0 | 0.00 | 0.18 | 0.18 | 71 | 1012.7 |
| 20260509170014 | 15 | 181 | 3.2 | 19.3 | 0.00 | 0.18 | 0.18 | 71 | 1013.0 |
| 20260509164558 | 15 | 173 | 1.6 | 12.9 | 0.00 | 0.18 | 0.18 | 74 | 1012.7 |
| 20260509163052 | 15 | 195 | 0.0 | 12.9 | 0.00 | 0.18 | 0.18 | 72 | 1012.8 |
| 20260509161548 | 14 | 183 | 0.0 | 8.0 | 0.00 | 0.18 | 0.18 | 76 | 1013.0 |
| 20260509154525 | 12 | 105 | 0.0 | 4.8 | 0.00 | 0.18 | 0.18 | 83 | 1013.4 |
| 20260509153031 | 12 | 173 | 0.0 | 6.4 | 0.00 | 0.18 | 0.18 | 85 | 1013.5 |
| 20260509151519 | 11 | 153 | 0.0 | 8.0 | 0.00 | 0.18 | 0.18 | 86 | 1013.6 |
| 20260509150019 | 11 | 77 | 0.0 | 6.4 | 0.00 | 0.18 | 0.18 | 85 | 1013.4 |
| 20260509144518 | 10 | 151 | 0.0 | 0.0 | 0.00 | 0.18 | 0.18 | 85 | 1013.7 |
| 20260509143019 | 10 | 82 | 1.6 | 11.3 | 0.00 | 0.18 | 0.18 | 85 | 1013.7 |
| 20260509141550 | 10 | 75 | 0.0 | 0.0 | 0.00 | 0.18 | 0.18 | 86 | 1013.9 |
| 20260509140046 | 9 | 58 | 0.0 | 4.8 | 0.00 | 0.18 | 0.18 | 86 | 1014.1 |
| 20260509134645 | 9 | 147 | 0.0 | 6.4 | 0.00 | 0.18 | 0.18 | 87 | 1014.3 |
| 20260509133044 | 8 | 245 | 0.0 | 0.0 | 0.00 | 0.18 | 0.18 | 88 | 1014.6 |
| 20260509131556 | 8 | 245 | 0.0 | 0.0 | 0.00 | 0.18 | 0.18 | 88 | 1014.8 |
| 20260509124531 | 7 | 245 | 0.0 | 0.0 | 0.03 | 0.18 | 0.18 | 87 | 1014.9 |
| 20260509123011 | 7 | 245 | 0.0 | 0.0 | 0.03 | 0.18 | 0.18 | 88 | 1014.8 |
| 20260509121507 | 6 | 246 | 0.0 | 0.0 | 0.05 | 0.18 | 0.18 | 89 | 1014.8 |
| 20260509120013 | 6 | 246 | 0.0 | 0.0 | 0.05 | 0.18 | 0.18 | 89 | 1015.0 |
| 20260509114505 | 6 | 246 | 0.0 | 0.0 | 0.03 | 0.15 | 0.15 | 89 | 1015.3 |
| 20260509113005 | 6 | 246 | 0.0 | 0.0 | 0.05 | 0.15 | 0.15 | 89 | 1015.3 |
| 20260509111535 | 6 | 246 | 0.0 | 0.0 | 0.08 | 0.13 | 0.13 | 89 | 1015.2 |
| 20260509110032 | 6 | 246 | 0.0 | 0.0 | 0.10 | 0.13 | 0.13 | 89 | 1015.3 |
| 20260509104530 | 6 | 246 | 0.0 | 0.0 | 0.13 | 0.13 | 0.13 | 88 | 1015.5 |
| 20260509103028 | 6 | 246 | 0.0 | 0.0 | 0.10 | 0.10 | 0.10 | 87 | 1015.4 |
| 20260509101535 | 6 | 246 | 0.0 | 0.0 | 0.05 | 0.05 | 0.05 | 86 | 1015.3 |
| 20260509100025 | 6 | 246 | 0.0 | 0.0 | 0.03 | 0.03 | 0.03 | 86 | 1015.0 |
| 20260509094530 | 6 | 231 | 0.0 | 1.6 | 0.00 | 0.00 | 0.00 | 87 | 1015.0 |
| 20260509093021 | 5 | 230 | 0.0 | 0.0 | 0.00 | 0.00 | 0.00 | 86 | 1014.7 |
| 20260509091521 | 5 | 230 | 0.0 | 0.0 | 0.00 | 0.00 | 0.00 | 86 | 1014.3 |
| 20260509090020 | 4 | 230 | 0.0 | 0.0 | 0.00 | 0.00 | 0.00 | 86 | 1014.1 |
| 20260509083016 | 3 | 230 | 0.0 | 0.0 | 0.00 | 0.00 | 0.00 | 86 | 1014.3 |
| 20260509081515 | 3 | 230 | 0.0 | 0.0 | 0.00 | 0.00 | 0.00 | 87 | 1014.2 |
| 20260509080014 | 3 | 230 | 0.0 | 0.0 | 0.00 | 0.00 | 0.00 | 88 | 1014.2 |
| 20260509074514 | 2 | 230 | 0.0 | 0.0 | 0.00 | 0.00 | 0.00 | 88 | 1014.6 |
| 20260509073013 | 2 | 230 | 0.0 | 0.0 | 0.00 | 0.00 | 0.00 | 88 | 1014.4 |
| 20260509071512 | 2 | 230 | 0.0 | 0.0 | 0.00 | 0.00 | 0.00 | 87 | 1014.4 |
| 20260509070009 | 2 | 230 | 0.0 | 0.0 | 0.00 | 0.00 | 0.00 | 87 | 1014.6 |
| 20260509064509 | 2 | 230 | 0.0 | 0.0 | 0.00 | 0.00 | 0.00 | 87 | 1014.6 |
| 20260509063007 | 2 | 230 | 0.0 | 0.0 | 0.00 | 0.00 | 0.00 | 86 | 1014.7 |
| 20260509061513 | 3 | 230 | 0.0 | 0.0 | 0.00 | 0.00 | 0.00 | 86 | 1014.8 |
| 20260509060003 | 3 | 230 | 0.0 | 0.0 | 0.00 | 0.00 | 0.00 | 86 | 1014.6 |
| 20260509054502 | 3 | 230 | 0.0 | 0.0 | 0.00 | 0.00 | 0.00 | 86 | 1014.7 |
| 20260509053002 | 3 | 230 | 0.0 | 0.0 | 0.00 | 0.00 | 0.00 | 85 | 1014.7 |
| 20260509051608 | 3 | 230 | 0.0 | 0.0 | 0.00 | 0.00 | 0.00 | 85 | 1014.5 |
| 20260509050029 | 3 | 230 | 0.0 | 0.0 | 0.00 | 0.00 | 0.00 | 84 | 1014.4 |
| 20260509044526 | 3 | 230 | 0.0 | 0.0 | 0.00 | 0.00 | 0.00 | 84 | 1014.3 |
| 20260509043055 | 3 | 230 | 0.0 | 0.0 | 0.00 | 0.00 | 0.00 | 83 | 1014.4 |
| 20260509041553 | 3 | 230 | 0.0 | 0.0 | 0.00 | 0.00 | 0.00 | 83 | 1014.4 |
| 20260509040049 | 3 | 230 | 0.0 | 0.0 | 0.00 | 0.00 | 0.00 | 83 | 1014.3 |
| 20260509034547 | 4 | 230 | 0.0 | 0.0 | 0.00 | 0.00 | 0.00 | 82 | 1014.1 |
| 20260509033045 | 4 | 230 | 0.0 | 0.0 | 0.00 | 0.00 | 0.00 | 81 | 1014.0 |
| 20260509031553 | 5 | 230 | 0.0 | 0.0 | 0.00 | 0.00 | 0.00 | 80 | 1014.0 |
| 20260509030013 | 5 | 230 | 0.0 | 0.0 | 0.00 | 0.00 | 0.00 | 79 | 1013.9 |
| 20260509024510 | 5 | 230 | 0.0 | 0.0 | 0.00 | 0.00 | 0.00 | 77 | 1013.7 |
| 20260509023003 | 5 | 230 | 0.0 | 0.0 | 0.00 | 0.00 | 0.00 | 76 | 1013.8 |
| 20260509021600 | 6 | 230 | 0.0 | 0.0 | 0.00 | 0.00 | 0.00 | 74 | 1013.6 |
| 20260509020058 | 6 | 230 | 0.0 | 0.0 | 0.00 | 0.00 | 0.00 | 72 | 1013.6 |
| 20260509014553 | 6 | 230 | 0.0 | 0.0 | 0.00 | 0.00 | 0.00 | 70 | 1013.5 |
| 20260509013048 | 7 | 230 | 0.0 | 0.0 | 0.00 | 0.00 | 0.00 | 68 | 1013.1 |
| 20260509011543 | 8 | 230 | 0.0 | 0.0 | 0.00 | 0.00 | 0.00 | 66 | 1012.8 |
| 20260509010044 | 10 | 230 | 0.0 | 0.0 | 0.00 | 0.00 | 0.00 | 60 | 1012.6 |
| 20260509004535 | 10 | 230 | 0.0 | 0.0 | 0.00 | 0.00 | 0.00 | 58 | 1012.2 |
| 20260509003028 | 10 | 230 | 0.0 | 0.0 | 0.00 | 0.00 | 0.00 | 57 | 1012.0 |
| 20260509001530 | 11 | 230 | 0.0 | 0.0 | 0.00 | 0.00 | 0.00 | 56 | 1011.9 |
| 20260509000021 | 11 | 230 | 0.0 | 0.0 | 0.00 | 0.00 | 0.00 | 57 | 1011.8 |
| 20260508234518 | 11 | 255 | 0.0 | 0.0 | 0.00 | 0.00 | 0.00 | 54 | 1011.4 |